Location: Gälforsberget
(66.6500°N, 22.4167°E)
Time: 07:11:23
(UTC+00:00)

Cosmos 2221 Rocket - Pass Details

Date: 11 April 2026
Orbit: 615 x 642 km, 82.5° (Epoch: 12 May)

Event Time Altitude Azimuth Distance (km) Brightness Sun altitude
Rises 19:42:04 0° 341° (NNW) 2,906 8.4 -8.8°
Reaches altitude 10° 19:44:19 10° 342° (NNW) 1,995 7.4 -9.0°
Maximum altitude 19:48:44 81° 69° (ENE) 633 3.6 -9.3°
Enters shadow 19:52:54 12° 159° (SSE) 1,886 5.4 -9.5°
